sat.trackr.live / text

‹ back to catalog

TRANSPORTER-14 OBJECT AJ

NORAD 64560 · 2025-135AJ

PAYLOAD ACTIVE UNKNOWN

§ Identity

Operator
Country
TBD
Launch date
2025-06-23
Launch site
AFWTR
Launch vehicle
Mass (kg)
RCS (m²)

External: N2YO · Heavens-Above · Gunter

§ Orbital elements

Epoch: 2026-05-25T01:21:33.247584Z

Period
96.30 min
Inclination
97.7703°
Eccentricity
0.0001227
Mean motion
14.95387032 rev/d
Perigee alt
580.3 km
Apogee alt
582.0 km
Semi-major
6,959.3 km
B*
4.0653e-4
RAAN
259.9312°
Arg perigee
81.9600°
Mean anomaly
278.1760°
Rev number
5,045

§ Raw data

TRANSPORTER-14 OBJECT AJ1 64560U 25135AJ  26145.05663481  .00004432  00000+0  40653-3 0  99912 64560  97.7703 259.9312 0001227  81.9600 278.1760 14.95387032 50450

JSON: /api/v1/satellites/64560 · /tle

For live sub-satellite position, see the globe view (requires WebGL).

§ Visibility from observer

Set your observer location to see the next 7 days of passes ≥ 10°. The values pass through the URL so the page stays shareable.

No JS? Fill the form by hand. The geolocation button needs JavaScript.